Theta_e
312 312 312 312 312 313 313 314 314 315 316 317 318 321 324 327 327 328 330 330 329 329 329 328 328 331 334 334 337 339 341 340 339 339 338 332 335 334 337 340 339 341 341 340 338
312 312 312 312 312 313 313 314 314 315 316 317 318 320 324 327 327 330 330 330 330 330 329 328 328 329 335 335 337 338 338 337 334 334 335 333 334 336 337 340 341 340 340 339 338
312 312 312 312 312 313 313 314 314 315 315 317 318 319 324 327 330 330 329 330 331 329 328 328 329 330 335 335 336 334 337 334 333 333 335 336 337 337 338 339 337 338 338 338 338
312 312 312 312 312 313 313 314 314 315 315 316 317 319 323 327 332 331 331 330 329 328 327 328 329 331 334 334 335 336 333 334 336 334 337 338 338 340 339 340 339 337 337 338 338
313 313 313 312 313 313 314 316 315 315 315 316 317 319 322 327 330 330 332 330 329 328 328 329 328 329 329 330 334 335 335 338 337 337 339 338 340 341 340 340 337 337 338 339 339
313 313 313 313 312 313 319 319 318 317 316 316 317 319 322 327 330 331 331 330 330 330 330 331 331 330 329 330 334 334 336 339 339 339 339 339 339 341 342 340 337 339 338 339 339
313 313 313 313 313 317 319 318 320 321 318 317 317 318 322 329 330 332 330 330 332 332 331 331 331 330 327 330 333 336 340 338 337 338 340 337 340 343 342 342 340 339 338 337 337
312 313 313 313 313 319 319 318 319 321 320 318 317 318 324 329 329 330 329 330 330 331 330 331 330 328 326 331 332 337 337 340 337 338 338 338 343 341 340 343 340 338 337 338 339
312 313 313 313 313 318 320 318 320 319 319 317 317 319 324 328 329 329 329 329 329 330 330 330 328 327 327 329 332 332 336 339 340 339 341 339 341 340 338 339 341 341 340 338 337
312 313 313 313 313 318 319 319 320 320 319 320 318 320 324 327 328 329 329 329 329 329 330 329 328 330 328 331 335 336 336 338 339 341 338 339 340 339 338 336 339 338 337 339 338
312 313 313 314 314 316 319 318 318 318 318 318 318 320 325 326 328 329 329 329 329 329 331 328 330 331 329 328 328 329 335 339 340 339 340 340 340 339 337 337 339 339 338 340 339
312 313 314 314 314 314 318 317 315 317 318 318 318 320 321 323 325 328 328 329 329 330 328 329 331 329 327 328 332 334 337 340 341 338 339 340 340 339 336 337 338 338 339 340 338
312 312 314 314 313 314 315 316 315 317 318 318 319 319 321 324 325 327 328 328 328 328 329 330 330 327 327 329 333 335 338 341 340 338 338 340 340 338 338 338 338 337 339 338 336
311 312 313 314 314 314 316 315 315 319 322 323 321 321 322 324 325 327 328 328 328 329 328 329 327 327 329 330 329 332 332 339 340 339 341 339 341 340 340 340 338 337 338 336 335
311 311 312 312 314 313 313 315 319 319 328 324 321 321 323 325 326 326 327 327 329 329 329 330 328 329 330 329 327 332 335 338 337 340 340 340 341 340 338 339 339 338 337 337 336
311 311 311 312 314 314 315 318 319 327 329 325 322 323 323 323 325 325 327 327 326 327 326 328 325 327 329 331 330 333 336 336 335 337 341 338 342 339 338 338 338 337 337 337 337
311 311 312 312 315 316 317 321 328 333 329 323 323 322 323 324 325 325 326 328 330 331 331 329 329 327 328 335 333 334 340 341 341 341 341 337 341 340 338 336 337 338 337 337 337
311 311 312 315 318 320 318 327 333 331 329 326 320 321 324 324 324 325 327 327 326 328 329 330 330 329 330 333 335 337 337 338 340 337 338 338 343 339 337 335 336 337 337 337 338
310 311 313 319 319 321 319 327 332 331 328 325 323 323 323 322 324 325 327 327 327 329 331 331 330 327 329 332 333 334 335 332 338 335 340 340 340 338 336 336 337 338 338 338 337
310 311 319 319 320 320 318 318 325 326 325 325 327 323 325 322 324 325 326 327 326 327 328 331 331 327 331 331 331 333 331 336 336 343 341 341 342 340 339 339 340 339 338 337 336
309 311 320 320 321 319 319 317 319 321 322 326 328 328 330 330 323 325 326 325 326 325 326 329 332 330 330 334 334 334 336 334 336 338 342 338 337 339 339 339 340 337 336 335 336
309 312 318 321 323 315 320 319 319 322 324 327 327 327 331 330 327 324 325 326 328 326 329 329 334 331 335 331 331 333 336 336 337 340 339 340 340 336 337 337 337 336 336 337 335
308 310 316 321 325 322 321 321 321 323 326 327 329 329 332 335 337 330 325 328 331 328 331 330 335 336 337 335 332 335 334 332 334 339 343 340 338 336 336 337 336 336 337 336 335
309 315 321 320 318 322 325 324 327 325 324 326 328 330 333 336 335 336 334 333 332 334 327 332 337 337 331 334 335 336 334 333 336 340 339 339 340 339 339 340 338 338 336 335 334
309 315 318 323 322 321 323 325 326 328 327 326 328 331 335 337 336 337 335 332 331 332 333 339 341 335 334 334 334 334 334 334 335 335 338 339 338 341 340 340 338 337 335 334 333
313 318 317 319 318 321 321 325 325 328 329 328 329 330 334 338 337 336 336 333 335 332 337 334 341 337 338 335 334 334 335 336 335 336 337 339 340 339 338 336 337 337 335 334 333
313 316 316 315 320 322 324 323 325 324 329 329 329 333 336 333 331 333 331 331 333 335 337 340 341 339 338 336 334 336 335 335 339 338 338 341 339 339 338 336 337 336 335 334 335
Wind_Speed
17 17 18 17 16 15 13 11 10 9 9 7 7 6 5 6 8 7 5 2 1 3 3 3 3 3 3 2 1 1 2 3 2 4 2 7 6 7 3 7 5 3 0 0 12
19 19 18 18 17 16 14 12 11 9 9 8 7 6 4 6 9 5 2 3 1 2 2 3 5 3 2 3 4 4 2 2 2 3 6 12 13 10 6 8 2 2 2 2 12
19 19 19 18 18 16 16 13 12 10 9 8 7 6 4 5 6 1 1 2 3 4 2 4 3 1 2 3 5 3 2 2 4 8 10 13 8 3 2 4 5 3 3 6 10
20 21 21 19 18 17 16 14 12 11 9 8 6 6 4 3 2 1 2 2 3 2 3 4 3 1 2 2 3 3 1 4 6 4 0 3 7 1 1 5 1 5 5 9 9
20 21 21 20 18 17 15 13 13 11 9 7 6 5 4 5 4 1 1 2 3 2 5 4 3 2 2 2 3 3 0 4 4 7 4 3 6 3 6 7 5 2 6 9 12
21 21 21 20 18 17 12 14 12 10 8 7 6 5 5 4 4 0 1 1 3 6 8 8 7 9 1 1 4 2 2 6 3 4 3 1 2 1 4 7 4 0 4 8 11
22 22 22 21 19 13 14 15 11 10 6 6 6 7 9 9 5 3 1 3 2 5 9 13 14 5 2 2 3 10 5 2 1 5 1 2 0 4 6 5 6 4 3 7 10
23 23 23 22 19 11 15 15 10 5 3 5 6 8 6 9 8 5 5 3 3 5 10 12 12 1 2 3 3 2 3 2 3 4 1 3 1 4 6 2 4 4 3 5 9
23 24 23 22 18 11 15 13 3 7 2 2 5 6 4 7 9 5 2 1 3 4 7 9 5 3 1 1 3 1 1 3 2 6 2 2 1 1 2 3 2 3 0 1 2
24 24 24 21 16 11 14 5 1 3 6 2 3 3 4 4 6 7 3 4 4 3 4 5 3 2 2 3 2 3 1 1 1 4 2 1 1 2 3 8 4 3 2 1 4
24 24 24 21 12 12 12 3 4 2 12 4 3 5 3 3 9 7 4 2 4 2 1 4 2 5 10 4 2 5 3 2 1 2 3 3 4 4 6 7 5 1 1 1 4
24 24 23 21 9 12 8 9 10 7 7 9 11 14 13 7 3 6 3 5 4 2 1 1 2 2 6 1 3 3 4 3 1 1 2 4 8 5 6 1 3 5 3 6 7
23 24 22 21 6 14 5 8 11 12 3 6 5 9 7 6 4 5 7 5 2 2 2 3 2 2 2 4 4 2 7 6 2 1 4 7 3 2 2 4 6 4 1 3 9
23 23 22 21 7 16 1 9 12 7 1 3 4 3 8 5 4 8 8 4 2 3 2 4 1 3 8 2 3 7 4 3 6 3 2 5 4 1 1 7 2 3 2 5 8
22 22 21 20 17 11 6 10 9 2 1 1 3 2 7 6 1 6 9 6 5 4 3 3 3 3 7 2 3 2 7 9 5 4 4 3 4 2 2 5 6 3 2 4 7
20 21 21 20 18 7 8 8 4 2 2 1 3 5 6 1 1 1 3 5 3 3 1 6 2 3 1 5 4 12 15 9 3 1 3 2 2 3 4 4 5 5 9 8 9
19 19 19 17 12 7 7 1 2 1 1 1 2 3 3 3 3 1 2 3 3 3 2 3 1 2 2 6 3 3 7 3 2 3 3 1 4 5 5 3 5 10 14 12 12
18 17 15 10 4 6 7 2 1 0 2 1 1 3 6 6 4 3 3 3 1 2 2 1 4 1 2 1 3 7 1 3 4 3 1 3 3 2 3 12 10 9 12 12 14
18 14 7 3 2 7 3 2 2 0 2 4 2 3 3 2 2 4 5 5 5 9 4 3 3 1 2 2 1 4 5 3 5 1 2 1 3 5 1 5 9 10 12 15 17
17 13 1 2 2 8 0 2 2 2 4 1 1 2 2 3 6 5 7 3 5 12 2 4 3 0 2 4 9 2 6 2 1 3 3 2 4 3 3 5 8 13 17 18 17
13 7 2 2 4 2 1 2 4 4 3 3 2 1 2 3 5 3 3 1 2 3 4 5 2 1 2 2 1 3 2 4 2 2 2 2 2 4 3 3 7 11 12 13 15
5 3 2 2 1 2 1 2 5 4 2 1 2 1 1 3 4 4 5 3 3 9 7 3 3 3 1 2 2 1 1 3 3 3 1 3 2 3 3 0 3 9 10 12 14
7 4 2 4 2 0 3 3 4 3 4 3 2 2 1 1 2 4 3 2 3 7 6 8 2 2 2 2 2 2 2 3 3 0 6 4 2 3 4 7 7 9 9 11 12
3 1 1 2 3 2 1 2 5 5 4 3 3 2 1 1 1 2 2 1 1 2 6 9 3 3 5 1 1 2 3 3 3 3 3 7 4 5 5 5 6 7 8 9 10
1 1 0 1 3 2 1 1 3 4 2 3 2 4 0 1 1 2 1 1 3 4 2 2 3 2 1 2 4 3 5 6 8 5 5 5 6 6 6 4 5 6 5 6 10
1 1 1 1 2 2 1 1 2 4 2 2 4 10 1 2 1 3 1 3 1 3 2 2 3 2 2 3 2 4 6 6 7 4 7 3 5 5 5 4 4 3 3 6 9
3 1 1 1 0 2 2 1 2 4 3 5 8 5 2 4 7 8 6 4 1 2 2 1 4 4 3 3 0 6 9 9 3 5 4 7 3 11 7 5 3 2 1 5 7
Wind_Direction
3 358 354 352 350 343 337 332 321 311 305 291 289 289 300 306 304 313 316 273 296 1 1 330 312 349 9 82 138 88 275 248 232 204 173 164 162 178 166 143 137 143 222 212 180
357 354 354 349 345 340 333 326 317 305 292 285 278 287 286 296 302 329 266 242 245 281 291 321 332 318 99 131 177 196 226 259 253 221 205 183 184 161 163 137 136 161 269 185 183
356 353 351 349 341 336 330 324 315 301 285 273 267 280 264 288 312 78 163 138 170 222 273 310 291 304 121 187 208 162 297 291 248 242 182 177 158 171 196 164 172 184 192 167 183
353 350 350 348 340 334 328 324 312 299 280 265 253 264 239 248 188 169 39 134 211 253 277 282 221 134 187 231 205 247 224 264 329 203 107 139 128 54 345 43 26 305 221 196 197
350 349 348 348 341 333 330 324 310 299 281 261 244 249 223 230 243 353 270 212 266 321 309 273 222 131 303 222 212 238 19 71 86 121 101 72 47 61 56 6 337 174 198 214 221
349 349 348 345 344 334 334 321 321 308 280 257 238 230 213 234 217 242 167 208 301 330 326 344 330 326 284 197 241 157 85 89 65 63 109 122 47 49 32 18 55 112 235 236 246
348 349 349 347 346 337 331 324 325 315 272 245 229 215 212 212 197 203 191 330 328 315 336 337 328 326 324 145 126 127 115 88 337 336 116 6 190 58 359 22 69 95 203 245 273
349 350 351 352 347 340 340 332 327 329 254 224 219 210 227 218 225 245 303 303 312 321 333 326 327 351 56 123 77 159 150 222 54 339 17 310 354 87 1 136 106 127 197 251 277
348 350 351 354 350 346 342 342 59 70 57 183 195 197 233 214 220 221 354 282 279 323 326 318 350 17 34 97 154 105 149 232 156 12 284 255 2 107 160 10 325 7 75 38 88
347 348 353 354 353 354 349 346 153 337 11 159 181 185 243 200 194 210 240 305 242 300 330 350 16 319 27 334 123 76 68 228 257 6 24 162 233 214 269 333 250 159 101 173 337
344 346 352 354 355 2 0 343 336 289 322 241 222 254 264 230 222 221 247 189 145 109 342 8 306 358 342 316 163 151 162 217 132 79 283 329 283 261 301 299 264 215 12 300 341
339 344 350 355 353 4 356 54 39 336 311 283 261 253 256 286 280 211 226 176 156 146 201 259 218 291 321 137 139 143 179 205 232 351 314 1 310 315 347 337 267 324 344 26 22
335 340 346 355 354 351 354 29 359 347 278 291 241 238 237 231 243 206 187 171 141 180 217 243 285 291 345 343 258 264 228 184 260 101 95 322 262 12 42 323 327 331 222 27 23
332 336 340 350 358 346 352 343 337 325 337 273 227 230 208 193 246 215 177 172 135 239 195 257 226 309 330 309 212 293 295 160 144 175 322 357 329 141 345 317 5 345 267 345 353
329 331 334 339 337 339 312 327 328 153 88 121 176 173 179 185 266 178 203 195 199 203 207 276 257 277 308 11 224 356 112 106 91 58 318 37 292 35 344 56 31 75 33 360 5
325 327 328 330 333 321 318 326 141 251 71 96 138 158 149 228 354 134 163 170 124 133 272 276 293 249 65 48 116 138 104 93 91 30 270 44 321 319 5 5 334 311 310 313 330
320 323 322 321 325 333 331 141 173 261 308 36 155 155 143 154 220 10 137 134 192 179 239 309 282 286 143 109 172 177 157 127 208 238 278 197 220 279 292 325 315 323 334 343 339
319 321 319 312 331 336 337 163 181 43 341 5 74 116 186 160 203 169 146 213 146 109 124 322 181 210 123 285 221 171 256 210 209 203 298 171 241 93 348 316 301 316 329 348 358
319 325 308 302 291 327 320 187 168 35 327 328 103 159 181 178 210 193 221 239 225 184 209 174 257 320 64 116 254 155 214 75 107 36 251 344 259 267 53 38 26 17 5 358 357
326 328 273 267 289 324 71 234 232 210 336 298 212 193 146 172 183 194 182 206 224 201 207 190 269 33 82 136 58 239 122 196 116 165 234 232 277 254 310 15 17 10 0 356 9
325 318 309 211 322 331 277 252 287 283 255 217 358 122 168 165 193 192 206 194 209 139 142 141 219 217 247 18 308 161 182 67 97 304 214 238 217 194 195 39 9 14 27 38 39
312 281 271 217 338 47 297 298 312 294 326 297 256 290 292 164 156 213 228 242 175 165 165 164 142 218 105 4 279 326 146 178 257 204 229 309 250 54 247 350 39 71 60 52 42
318 276 242 183 240 112 313 295 283 313 326 353 316 41 60 175 202 208 203 238 285 182 164 175 186 170 148 178 168 248 127 92 95 184 208 227 193 26 145 115 76 72 58 50 30
313 330 333 144 92 110 31 349 319 309 274 292 293 297 104 203 244 180 202 23 126 178 146 136 137 200 249 196 114 223 196 170 186 225 186 235 157 145 146 126 103 91 62 35 18
334 99 117 93 75 62 189 327 321 338 300 313 205 20 221 320 271 169 182 153 104 147 53 155 169 177 192 242 199 222 237 188 210 227 250 340 214 159 175 150 124 94 56 22 9
119 127 90 312 310 210 341 140 312 328 290 35 12 334 226 107 358 309 274 209 174 120 80 9 146 151 187 348 248 273 265 255 250 238 235 224 215 168 187 170 130 113 46 5 358
165 161 99 336 348 217 162 137 150 351 246 262 329 306 83 20 322 285 283 315 100 132 116 71 148 168 210 38 280 272 259 232 215 203 204 228 230 166 191 179 164 196 357 339 342